User: anonymous   Login
Location: Unspecified
(0.0000°N, 0.0000°E)
Time: 17:59:49
(UTC+00:00)
Language:

AEHF 1 (USA 214) - Orbit

View from above orbital plane
View from above orbital plane
View from above satellite
View from above satellite

Ground track
Ground track

The orbit data is extracted from the following two-line orbital elements,

1 36868U 10039A   17112.98434495 0.00000000  00000-0  00000-0 0    05
2 36868   0.5796 184.4811 0003772 166.5251 193.4912  1.00548644    03
Epoch (UTC): 22 April 2017 23:37:27
Eccentricity: 0.0003772
inclination: 0.5796°
perigee height: 35693 km
apogee height: 35724 km
right ascension of ascending node: 184.4811°
argument of perigee: 166.5251°
revolutions per day: 1.00548644
mean anomaly at epoch: 193.4912°
orbit number at epoch: 0

The dashed part of the orbit path shows where the satellite is in the earth's shadow,  

DLR